Greybull, WY

4:27 PM MDT on June 22, 2017 (GMT -0600)
South Big Horn County

Weather History for KGEY - May, 2014

Change the Weather History Date:

Saturday, May 17, 2014

  Actual Average Record
Temperature  
Mean Temperature 63 °F 57 °F  
Max Temperature 73 °F 71 °F 89 °F (2006)
Min Temperature 52 °F 43 °F 35 °F (1999)
Degree Days  
Heating Degree Days 2 9  
Month to date heating degree days 218 188  
Since 1 July heating degree days 7564 7587  
Cooling Degree Days 0 1  
Month to date cooling degree days 0 2  
Year to date cooling degree days 0 3  
Growing Degree Days 12 (Base 50)    
Moisture  
Dew Point 40 °F    
Average Humidity 50    
Maximum Humidity 71    
Minimum Humidity 29    
Precipitation  
Precipitation 0.00 in 0.05 in 0.69 in (2005)
Month to date precipitation 0.43 0.69  
Year to date precipitation 1.58 2.21  
Sea Level Pressure  
Sea Level Pressure 29.85 in    
Wind  
Wind Speed 5 mph (SSE)    
Max Wind Speed 10 mph    
Max Gust Speed 15 mph    
Visibility 10 miles    
Events      
T = Trace of Precipitation, MM = Missing Value Source: NWS Daily Summary

Daily Weather History Graph

Daily Weather History Graph

Search for Another Location

Airport or City:

Trip Planner

Search our weather history database for the weather conditions in past years. The results will help you decide how hot, cold, wet, or windy it might be!

Date:

Astronomy

May. 17, 2014 Rise Set
Actual Time 5:42 AM MDT 8:35 PM MDT
Civil Twilight 5:08 AM MDT 9:09 PM MDT
Nautical Twilight 4:25 AM MDT 9:53 PM MDT
Astronomical Twilight 3:34 AM MDT 10:44 PM MDT
Moon 11:37 PM MDT (5/17) 8:29 AM MDT (5/17)
Length of Visible Light 16h 01m
Length of Day
14h 53m
Waning Gibbous, 89% of the Moon is Illuminated
May 17
Waning Gibbous
May 21
Last Quarter
May 28
New
Jun 5
First Quarter
Jun 12
Full

Hourly Weather History & Observations

Time (MDT) Temp. Dew Point Humidity Pressure Visibility Wind Dir Wind Speed Gust Speed Precip Events Conditions
12:53 AM 55.9 °F 41.0 °F 57% 29.94 in 10.0 mi East 3.5 mph - N/A   Mostly Cloudy
1:53 AM 54.0 °F 41.0 °F 62% 29.94 in 10.0 mi Calm Calm - N/A   Overcast
2:53 AM 54.0 °F 39.9 °F 59% 29.93 in 10.0 mi East 4.6 mph - N/A   Overcast
3:53 AM 53.1 °F 41.0 °F 64% 29.93 in 10.0 mi Calm Calm - N/A   Overcast
4:53 AM 53.1 °F 43.0 °F 69% 29.92 in 10.0 mi East 3.5 mph - N/A   Overcast
5:53 AM 52.0 °F 41.0 °F 66% 29.92 in 10.0 mi SSE 3.5 mph - N/A   Overcast
6:53 AM 53.1 °F 42.1 °F 66% 29.93 in 10.0 mi Calm Calm - N/A   Mostly Cloudy
7:53 AM 54.0 °F 44.1 °F 69% 29.94 in 10.0 mi WNW 9.2 mph - N/A   Partly Cloudy
8:53 AM 57.0 °F 42.1 °F 57% 29.94 in 10.0 mi NW 3.5 mph - N/A   Clear
9:53 AM 59.0 °F 42.1 °F 53% 29.93 in 10.0 mi Variable 5.8 mph - N/A   Unknown
10:53 AM 61.0 °F 42.1 °F 50% 29.93 in 10.0 mi SW 5.8 mph - N/A   Mostly Cloudy
11:53 AM 64.0 °F 42.1 °F 45% 29.90 in 10.0 mi NNW 4.6 mph - N/A   Mostly Cloudy
12:53 PM 64.9 °F 39.9 °F 40% 29.88 in 10.0 mi Variable 3.5 mph - N/A   Clear
1:53 PM 68.0 °F 39.9 °F 36% 29.86 in 10.0 mi NNE 4.6 mph - N/A   Mostly Cloudy
2:53 PM 69.1 °F 39.9 °F 35% 29.83 in 10.0 mi South 8.1 mph - N/A   Partly Cloudy
3:53 PM 70.0 °F 39.0 °F 32% 29.81 in 10.0 mi South 5.8 mph - N/A   Clear
4:53 PM 71.1 °F 37.9 °F 30% 29.79 in 10.0 mi South 5.8 mph - N/A   Clear
5:53 PM 71.1 °F 37.9 °F 30% 29.78 in 10.0 mi SSW 6.9 mph - N/A   Clear
6:53 PM 70.0 °F 37.9 °F 31% 29.75 in 10.0 mi SSE 8.1 mph - N/A   Clear
7:53 PM 68.0 °F 39.0 °F 35% 29.75 in 10.0 mi SSE 4.6 mph - N/A   Clear
8:53 PM 64.9 °F 39.9 °F 40% 29.74 in 10.0 mi South 4.6 mph - N/A   Clear
9:53 PM 63.0 °F 39.0 °F 41% 29.74 in 10.0 mi SE 4.6 mph - N/A   Clear
10:53 PM 59.0 °F 39.9 °F 49% 29.73 in 10.0 mi SE 4.6 mph - N/A   Clear
11:53 PM 57.0 °F 39.9 °F 53% 29.71 in 10.0 mi ESE 4.6 mph - N/A   Clear